RTU MIREA 1 (RS51S)

Last updated on Tue Aug 25 2026 00:03:14 GMT+0000 (Coordinated Universal Time)

1 61785U 24199BC 26236.62266657 .00081780 00000+0 68749-3 0 9991 2 61785 97.2795 115.6684 0006998 46.6473 313.5371 15.69602687145172
UTC large
Height (km)
Speed (km/s)
/
Latitude / Longitude
Inclination (degrees)
Orbital Period (minutes)
Azimuth
Elevation
Range (km)
Doppler Factor

Next 0 passes for location: London (51.5072 / 0.1276)

No passes found over London.
RTU MIREA 1 (RS51S)